START_TIME,STEP,MOV.,AL01,t_acc.,AL02,t_acc.,E37,t_acc.,H21,t_acc.
1979-07-01 15:00:35.250 ,1,0,0.,24.0,0.,24.0,0.,24.0,0.,24.0
1979-07-01 15:00:59.250 ,2,1,0.,24.0,0.,24.0,0.,24.0,0.,24.0
1979-07-01 15:01:23.250 ,2,0,1.,24.0,1.,24.0,0.,24.0,0.,24.0
1979-07-01 15:01:47.250 ,3,1,0.,24.0,0.,24.0,0.,24.0,0.,24.0
1979-07-01 15:02:11.250 ,3,0,0.,24.0,0.,24.0,0.,24.0,0.,24.0
1979-07-01 15:02:35.250 ,4,1,0.,24.0,0.,24.0,0.,24.0,0.,24.0
1979-07-01 15:02:59.250 ,4,0,0.,24.0,0.,24.0,0.,24.0,0.,24.0
1979-07-01 15:03:23.250 ,5,1,0.,24.0,0.,24.0,0.,24.0,0.,24.0
1979-07-01 15:03:47.250 ,5,0,0.,24.0,0.,24.0,1.,24.0,0.,24.0
1979-07-01 15:04:11.250 ,6,1,0.,24.0,0.,24.0,0.,24.0,0.,24.0
1979-07-01 15:04:35.250 ,6,0,0.,24.0,0.,24.0,0.,24.0,0.,24.0
1979-07-01 15:04:59.250 ,7,1,9.,24.0,0.,24.0,0.,24.0,0.,24.0
1979-07-01 15:05:23.250 ,7,0,33.,24.0,0.,24.0,0.,24.0,0.,24.0
1979-07-01 15:05:47.250 ,7,1,24.,24.0,0.,24.0,0.,24.0,0.,24.0
1979-07-01 15:06:11.250 ,7,0,40.,24.0,0.,24.0,0.,24.0,0.,24.0
1979-07-01 15:06:35.250 ,6,1,25.,24.0,0.,24.0,0.,24.0,0.,24.0
1979-07-01 15:06:59.250 ,6,0,0.,24.0,0.,24.0,0.,24.0,0.,24.0
1979-07-01 15:07:23.250 ,5,1,0.,24.0,0.,24.0,1.,24.0,0.,24.0
1979-07-01 15:07:47.250 ,5,0,0.,24.0,0.,24.0,0.,24.0,0.,24.0
1979-07-01 15:08:11.250 ,4,1,0.,24.0,0.,24.0,0.,24.0,0.,24.0
1979-07-01 15:08:35.250 ,4,0,0.,24.0,0.,24.0,0.,24.0,0.,24.0
1979-07-01 15:08:59.250 ,3,1,0.,24.0,0.,24.0,0.,24.0,0.,24.0
1979-07-01 15:09:23.250 ,3,0,0.,24.0,0.,24.0,1.,24.0,0.,24.0
1979-07-01 15:09:47.250 ,2,1,0.,24.0,0.,24.0,0.,24.0,0.,24.0
1979-07-01 15:10:11.250 ,2,0,0.,24.0,0.,24.0,0.,24.0,0.,24.0
1979-07-01 15:10:35.250 ,1,1,0.,24.0,0.,24.0,0.,24.0,0.,24.0
1979-07-01 15:10:59.250 ,1,0,0.,24.0,0.,24.0,0.,24.0,0.,24.0
1979-07-01 15:11:23.250 ,0,1,0.,24.0,0.,24.0,1.,24.0,0.,24.0
1979-07-01 15:11:47.250 ,0,0,0.,24.0,0.,24.0,0.,24.0,0.,24.0
1979-07-01 15:12:11.250 ,0,1,0.,24.0,0.,24.0,0.,24.0,0.,24.0
1979-07-01 15:12:35.250 ,0,0,0.,24.0,0.,24.0,0.,24.0,0.,24.0
1979-07-01 15:12:59.250 ,1,1,0.,24.0,0.,24.0,0.,24.0,0.,24.0
1979-07-01 15:13:23.250 ,1,0,0.,24.0,0.,24.0,0.,24.0,0.,24.0
1979-07-01 15:13:47.250 ,2,1,1.,24.0,0.,24.0,0.,24.0,0.,24.0
1979-07-01 15:14:11.250 ,2,0,0.,24.0,0.,24.0,0.,24.0,0.,24.0
1979-07-01 15:14:35.250 ,3,1,1.,24.0,0.,24.0,0.,24.0,0.,24.0
1979-07-01 15:14:59.250 ,3,0,0.,24.0,0.,24.0,1.,24.0,0.,24.0
1979-07-01 15:15:23.250 ,4,1,,0,,0,,0,,0
1979-07-01 15:15:47.250 ,4,0,0.,24.0,0.,24.0,0.,24.0,0.,24.0
1979-07-01 15:16:11.250 ,5,1,0.,24.0,0.,24.0,0.,24.0,0.,24.0
1979-07-01 15:16:35.250 ,5,0,0.,24.0,0.,24.0,0.,24.0,0.,24.0
1979-07-01 15:16:59.250 ,6,1,0.,24.0,1.,24.0,0.,24.0,0.,24.0
1979-07-01 15:17:23.250 ,6,0,0.,24.0,0.,24.0,2.,24.0,0.,24.0
1979-07-01 15:17:47.250 ,7,1,4.,24.0,0.,24.0,1.,24.0,0.,24.0
1979-07-01 15:18:11.250 ,7,0,24.,24.0,0.,24.0,0.,24.0,0.,24.0
1979-07-01 15:18:35.250 ,7,1,25.,24.0,0.,24.0,0.,24.0,0.,24.0
1979-07-01 15:18:59.250 ,7,0,34.,24.0,0.,24.0,0.,24.0,0.,24.0
1979-07-01 15:19:23.250 ,6,1,24.,24.0,0.,24.0,1.,24.0,0.,24.0
1979-07-01 15:19:47.250 ,6,0,0.,24.0,0.,24.0,1.,24.0,0.,24.0
1979-07-01 15:20:11.250 ,5,1,0.,24.0,0.,24.0,0.,24.0,0.,24.0
1979-07-01 15:20:35.250 ,5,0,1.,24.0,0.,24.0,0.,24.0,0.,24.0
1979-07-01 15:20:59.250 ,4,1,0.,24.0,0.,24.0,0.,24.0,0.,24.0
1979-07-01 15:21:23.250 ,4,0,1.,24.0,0.,24.0,0.,24.0,0.,24.0
1979-07-01 15:21:47.250 ,3,1,0.,24.0,0.,24.0,0.,24.0,0.,24.0
1979-07-01 15:22:11.250 ,3,0,0.,24.0,0.,24.0,1.,24.0,0.,24.0
1979-07-01 15:22:35.250 ,2,1,0.,24.0,0.,24.0,2.,24.0,0.,24.0
1979-07-01 15:22:59.250 ,2,0,0.,24.0,0.,24.0,1.,24.0,0.,24.0
1979-07-01 15:23:23.250 ,1,1,0.,24.0,0.,24.0,1.,24.0,0.,24.0
1979-07-01 15:23:47.250 ,1,0,0.,24.0,0.,24.0,1.,24.0,0.,24.0
1979-07-01 15:24:11.250 ,0,1,0.,24.0,0.,24.0,0.,24.0,0.,24.0
1979-07-01 15:24:35.250 ,0,0,0.,24.0,0.,24.0,0.,24.0,0.,24.0
1979-07-01 15:25:00.450 ,0,1,1.,24.0,0.,24.0,0.,24.0,0.,24.0
1979-07-01 15:25:23.250 ,0,0,0.,24.0,1.,24.0,0.,24.0,0.,24.0
1979-07-01 15:25:47.250 ,1,1,0.,24.0,0.,24.0,0.,24.0,0.,24.0
1979-07-01 15:26:11.250 ,1,0,1.,24.0,0.,24.0,0.,24.0,0.,24.0
1979-07-01 15:26:35.250 ,2,1,0.,24.0,0.,24.0,0.,24.0,0.,24.0
1979-07-01 15:26:59.250 ,2,0,0.,24.0,0.,24.0,1.,24.0,0.,24.0
1979-07-01 15:27:23.250 ,3,1,0.,24.0,0.,24.0,0.,24.0,0.,24.0
1979-07-01 15:27:47.250 ,3,0,0.,24.0,0.,24.0,0.,24.0,0.,24.0
1979-07-01 15:28:11.250 ,4,1,0.,24.0,0.,24.0,0.,24.0,0.,24.0
1979-07-01 15:28:35.250 ,4,0,0.,24.0,0.,24.0,2.,24.0,0.,24.0
1979-07-01 15:28:59.250 ,5,1,0.,24.0,0.,24.0,0.,24.0,0.,24.0
1979-07-01 15:29:23.250 ,5,0,0.,24.0,0.,24.0,0.,24.0,0.,24.0
1979-07-01 15:29:47.250 ,6,1,0.,24.0,0.,24.0,1.,24.0,0.,24.0
1979-07-01 15:30:11.250 ,6,0,0.,24.0,0.,24.0,0.,24.0,0.,24.0
1979-07-01 15:30:35.250 ,7,0,6.,24.0,0.,24.0,0.,24.0,0.,24.0
1979-07-01 15:30:59.250 ,7,0,37.,24.0,0.,24.0,1.,24.0,0.,24.0
1979-07-01 15:31:23.250 ,5,1,16.,24.0,0.,24.0,1.,24.0,0.,24.0
1979-07-01 15:31:47.250 ,1,1,1.,24.0,0.,24.0,0.,24.0,0.,24.0
1979-07-01 15:32:11.250 ,2,1,0.,24.0,0.,24.0,0.,24.0,0.,24.0
1979-07-01 15:32:35.250 ,6,1,1.,24.0,0.,24.0,0.,24.0,0.,24.0
1979-07-01 15:32:59.250 ,5,1,15.,24.0,0.,24.0,0.,24.0,0.,24.0
1979-07-01 15:33:23.250 ,1,1,0.,24.0,0.,24.0,1.,24.0,0.,24.0
1979-07-01 15:33:47.250 ,2,1,0.,24.0,0.,24.0,0.,24.0,0.,24.0
1979-07-01 15:34:11.250 ,6,1,1.,24.0,0.,24.0,0.,24.0,0.,24.0
1979-07-01 15:34:35.250 ,5,1,14.,24.0,0.,24.0,0.,24.0,0.,24.0
1979-07-01 15:34:59.250 ,1,1,0.,24.0,0.,24.0,0.,24.0,0.,24.0
1979-07-01 15:35:23.250 ,2,1,0.,24.0,0.,24.0,0.,24.0,0.,24.0
1979-07-01 15:35:47.250 ,6,1,1.,24.0,0.,24.0,0.,24.0,0.,24.0
1979-07-01 15:36:11.250 ,5,1,18.,24.0,0.,24.0,0.,24.0,0.,24.0
1979-07-01 15:36:35.250 ,1,1,0.,24.0,0.,24.0,0.,24.0,0.,24.0
1979-07-01 15:36:59.250 ,2,1,0.,24.0,0.,24.0,0.,24.0,0.,24.0
1979-07-01 15:37:23.250 ,6,1,0.,24.0,0.,24.0,0.,24.0,0.,24.0
1979-07-01 15:37:47.250 ,5,1,15.,24.0,0.,24.0,0.,24.0,0.,24.0
1979-07-01 15:38:11.250 ,1,1,0.,24.0,0.,24.0,1.,24.0,0.,24.0
1979-07-01 15:38:35.250 ,2,1,1.,24.0,0.,24.0,1.,24.0,0.,24.0
1979-07-01 15:38:59.250 ,6,1,0.,24.0,0.,24.0,0.,24.0,0.,24.0
1979-07-01 15:39:23.250 ,5,1,16.,24.0,0.,24.0,0.,24.0,0.,24.0
1979-07-01 15:39:47.250 ,1,1,0.,24.0,0.,24.0,0.,24.0,0.,24.0
1979-07-01 15:40:11.250 ,2,1,0.,24.0,1.,24.0,0.,24.0,0.,24.0
1979-07-01 15:40:35.250 ,6,1,0.,24.0,0.,24.0,0.,24.0,0.,24.0
1979-07-01 15:40:59.250 ,5,1,16.,24.0,0.,24.0,0.,24.0,0.,24.0
1979-07-01 15:41:23.250 ,1,1,0.,24.0,0.,24.0,1.,24.0,0.,24.0
1979-07-01 15:41:47.250 ,0,0,0.,24.0,0.,24.0,1.,24.0,0.,24.0
1979-07-01 15:42:11.250 ,0,0,0.,24.0,0.,24.0,0.,24.0,0.,24.0
1979-07-01 15:42:35.250 ,5,1,18.,24.0,0.,24.0,1.,24.0,0.,24.0
1979-07-01 15:42:59.250 ,5,0,0.,24.0,0.,24.0,1.,24.0,0.,24.0
1979-07-01 15:43:23.250 ,4,1,0.,24.0,0.,24.0,1.,24.0,0.,24.0
1979-07-01 15:43:47.250 ,4,0,1.,24.0,0.,24.0,0.,24.0,0.,24.0
1979-07-01 15:44:11.250 ,3,1,0.,24.0,0.,24.0,0.,24.0,0.,24.0
1979-07-01 15:44:35.250 ,3,0,0.,24.0,0.,24.0,0.,24.0,0.,24.0
1979-07-01 15:44:59.250 ,2,1,0.,24.0,0.,24.0,1.,24.0,0.,24.0
1979-07-01 15:45:23.250 ,2,0,0.,24.0,0.,24.0,0.,24.0,0.,24.0
1979-07-01 15:45:47.250 ,1,1,0.,24.0,0.,24.0,0.,24.0,0.,24.0
1979-07-01 15:46:11.250 ,1,0,0.,24.0,0.,24.0,0.,24.0,0.,24.0
1979-07-01 15:46:35.250 ,0,1,1.,24.0,0.,24.0,0.,24.0,0.,24.0
1979-07-01 15:46:59.250 ,0,0,0.,24.0,0.,24.0,0.,24.0,0.,24.0
1979-07-01 15:47:23.250 ,0,1,1.,24.0,0.,24.0,0.,24.0,0.,24.0
1979-07-01 15:47:47.250 ,0,0,1.,24.0,0.,24.0,0.,24.0,0.,24.0
1979-07-01 15:48:11.250 ,1,1,0.,24.0,0.,24.0,0.,24.0,0.,24.0
1979-07-01 15:48:35.250 ,1,0,0.,24.0,0.,24.0,0.,24.0,0.,24.0
1979-07-01 15:48:59.250 ,2,1,0.,24.0,0.,24.0,0.,24.0,0.,24.0
1979-07-01 15:49:23.250 ,2,0,1.,24.0,0.,24.0,0.,24.0,0.,24.0
1979-07-01 15:49:47.250 ,3,1,0.,24.0,0.,24.0,0.,24.0,0.,24.0
1979-07-01 15:50:11.250 ,3,0,0.,24.0,0.,24.0,1.,24.0,0.,24.0
1979-07-01 15:50:35.250 ,4,1,0.,24.0,0.,24.0,2.,24.0,0.,24.0
1979-07-01 15:50:59.250 ,4,0,0.,24.0,0.,24.0,0.,24.0,0.,24.0
1979-07-01 15:51:23.250 ,5,1,1.,24.0,0.,24.0,0.,24.0,0.,24.0
1979-07-01 15:51:47.250 ,5,0,0.,24.0,0.,24.0,0.,24.0,0.,24.0
1979-07-01 15:52:11.250 ,6,1,0.,24.0,0.,24.0,1.,24.0,0.,24.0
1979-07-01 15:52:35.250 ,6,0,0.,24.0,0.,24.0,0.,24.0,0.,24.0
1979-07-01 15:52:59.250 ,7,1,4.,24.0,0.,24.0,1.,24.0,0.,24.0
1979-07-01 15:53:23.250 ,7,0,14.,24.0,0.,24.0,0.,24.0,0.,24.0
1979-07-01 15:53:47.250 ,7,1,26.,24.0,0.,24.0,0.,24.0,0.,24.0
1979-07-01 15:54:11.250 ,7,0,22.,24.0,0.,24.0,0.,24.0,0.,24.0
1979-07-01 15:54:35.250 ,6,1,32.,24.0,0.,24.0,0.,24.0,0.,24.0
1979-07-01 15:54:59.250 ,6,0,0.,24.0,0.,24.0,0.,24.0,0.,24.0
1979-07-01 15:55:23.250 ,5,1,0.,24.0,0.,24.0,0.,24.0,0.,24.0
1979-07-01 15:55:47.250 ,5,0,0.,24.0,0.,24.0,1.,24.0,0.,24.0
1979-07-01 15:56:11.250 ,4,1,0.,24.0,0.,24.0,0.,24.0,0.,24.0
1979-07-01 15:56:35.250 ,4,0,1.,24.0,0.,24.0,1.,24.0,0.,24.0
1979-07-01 15:56:59.250 ,3,1,0.,24.0,0.,24.0,0.,24.0,0.,24.0
1979-07-01 15:57:23.250 ,3,0,1.,24.0,0.,24.0,0.,24.0,0.,24.0
1979-07-01 15:57:47.250 ,2,1,1.,24.0,0.,24.0,0.,24.0,0.,24.0
1979-07-01 15:58:11.250 ,2,0,0.,24.0,0.,24.0,0.,24.0,0.,24.0
1979-07-01 15:58:35.250 ,1,1,0.,24.0,0.,24.0,0.,24.0,0.,24.0
1979-07-01 15:58:59.250 ,1,0,1.,24.0,0.,24.0,0.,24.0,0.,24.0
1979-07-01 15:59:23.250 ,0,1,0.,24.0,0.,24.0,1.,24.0,0.,24.0
1979-07-01 15:59:47.250 ,0,0,0.,24.0,0.,24.0,0.,24.0,0.,24.0
1979-07-01 16:00:11.250 ,0,1,0.,24.0,0.,24.0,0.,24.0,0.,24.0
1979-07-01 16:00:35.250 ,0,0,0.,24.0,0.,24.0,0.,24.0,0.,24.0
1979-07-01 16:00:59.250 ,1,1,0.,24.0,0.,24.0,0.,24.0,0.,24.0
1979-07-01 16:01:23.250 ,1,0,0.,24.0,0.,24.0,1.,24.0,0.,24.0
1979-07-01 16:01:47.250 ,2,1,0.,24.0,0.,24.0,0.,24.0,0.,24.0
1979-07-01 16:02:11.250 ,2,0,0.,24.0,0.,24.0,0.,24.0,0.,24.0
1979-07-01 16:02:35.250 ,3,1,0.,24.0,0.,24.0,0.,24.0,0.,24.0
1979-07-01 16:02:59.250 ,3,0,0.,24.0,0.,24.0,0.,24.0,0.,24.0
1979-07-01 16:03:23.250 ,4,1,0.,24.0,1.,24.0,1.,24.0,0.,24.0
1979-07-01 16:03:47.250 ,4,0,0.,24.0,0.,24.0,0.,24.0,0.,24.0
1979-07-01 16:04:11.250 ,5,1,0.,24.0,0.,24.0,1.,24.0,0.,24.0
1979-07-01 16:04:35.250 ,5,0,0.,24.0,0.,24.0,0.,24.0,0.,24.0
1979-07-01 16:04:59.250 ,6,1,0.,24.0,0.,24.0,0.,24.0,0.,24.0
1979-07-01 16:05:23.250 ,6,0,0.,24.0,0.,24.0,0.,24.0,0.,24.0
1979-07-01 16:05:47.250 ,7,1,9.,24.0,0.,24.0,1.,24.0,0.,24.0
1979-07-01 16:06:11.250 ,7,0,27.,24.0,0.,24.0,0.,24.0,0.,24.0
1979-07-01 16:06:35.250 ,7,1,32.,24.0,0.,24.0,0.,24.0,0.,24.0
1979-07-01 16:06:59.250 ,7,0,31.,24.0,0.,24.0,0.,24.0,0.,24.0
1979-07-01 16:07:23.250 ,6,1,15.,24.0,0.,24.0,0.,24.0,0.,24.0
1979-07-01 16:07:47.250 ,6,0,0.,24.0,0.,24.0,1.,24.0,0.,24.0
1979-07-01 16:08:11.250 ,5,1,0.,24.0,0.,24.0,0.,24.0,0.,24.0
1979-07-01 16:08:35.250 ,5,0,0.,24.0,0.,24.0,0.,24.0,0.,24.0
1979-07-01 16:08:59.250 ,4,1,0.,24.0,0.,24.0,0.,24.0,0.,24.0
1979-07-01 16:09:23.250 ,4,0,0.,24.0,0.,24.0,0.,24.0,0.,24.0
1979-07-01 16:09:47.250 ,3,1,1.,24.0,0.,24.0,0.,24.0,0.,24.0
1979-07-01 16:10:11.250 ,3,0,0.,24.0,0.,24.0,1.,24.0,0.,24.0
1979-07-01 16:10:35.250 ,2,1,0.,24.0,0.,24.0,2.,24.0,0.,24.0
1979-07-01 16:10:59.250 ,2,0,0.,24.0,0.,24.0,0.,24.0,0.,24.0
1979-07-01 16:11:23.250 ,1,1,0.,24.0,0.,24.0,0.,24.0,0.,24.0
1979-07-01 16:11:47.250 ,1,0,0.,24.0,0.,24.0,0.,24.0,0.,24.0
1979-07-01 16:12:11.250 ,0,1,0.,24.0,0.,24.0,0.,24.0,0.,24.0
1979-07-01 16:12:35.250 ,0,0,0.,24.0,0.,24.0,0.,24.0,0.,24.0
1979-07-01 16:12:59.250 ,0,1,0.,24.0,0.,24.0,0.,24.0,0.,24.0
1979-07-01 16:13:23.250 ,0,0,1.,24.0,1.,24.0,2.,24.0,0.,24.0
1979-07-01 16:13:47.250 ,1,1,0.,24.0,0.,24.0,0.,24.0,0.,24.0
1979-07-01 16:14:11.250 ,1,0,0.,24.0,0.,24.0,0.,24.0,0.,24.0
1979-07-01 16:14:35.250 ,2,1,0.,24.0,0.,24.0,1.,24.0,0.,24.0
1979-07-01 16:14:59.250 ,2,0,0.,24.0,0.,24.0,0.,24.0,0.,24.0
1979-07-01 16:15:23.250 ,3,1,0.,24.0,0.,24.0,0.,24.0,0.,24.0
1979-07-01 16:15:47.250 ,3,0,0.,24.0,0.,24.0,0.,24.0,0.,24.0
1979-07-01 16:16:11.250 ,4,1,1.,24.0,0.,24.0,0.,24.0,0.,24.0
1979-07-01 16:16:35.250 ,4,0,0.,24.0,0.,24.0,0.,24.0,0.,24.0
1979-07-01 16:16:59.250 ,5,1,0.,24.0,0.,24.0,0.,24.0,0.,24.0
1979-07-01 16:17:23.250 ,5,0,0.,24.0,0.,24.0,0.,24.0,0.,24.0
1979-07-01 16:17:47.250 ,6,1,1.,24.0,0.,24.0,0.,24.0,0.,24.0
1979-07-01 16:18:11.250 ,6,0,1.,24.0,0.,24.0,0.,24.0,0.,24.0
1979-07-01 16:18:35.250 ,7,0,13.,24.0,0.,24.0,0.,24.0,0.,24.0
1979-07-01 16:18:59.250 ,7,0,38.,24.0,0.,24.0,0.,24.0,0.,24.0
1979-07-01 16:19:23.250 ,5,1,9.,24.0,0.,24.0,0.,24.0,0.,24.0
1979-07-01 16:19:47.250 ,1,1,0.,24.0,0.,24.0,1.,24.0,0.,24.0
1979-07-01 16:20:11.250 ,2,1,1.,24.0,0.,24.0,0.,24.0,0.,24.0
1979-07-01 16:20:35.250 ,6,1,0.,24.0,0.,24.0,1.,24.0,0.,24.0
1979-07-01 16:20:59.250 ,5,1,19.,24.0,1.,24.0,0.,24.0,0.,24.0
1979-07-01 16:21:23.250 ,1,1,0.,24.0,0.,24.0,0.,24.0,0.,24.0
1979-07-01 16:21:47.250 ,2,1,0.,24.0,0.,24.0,1.,24.0,0.,24.0
1979-07-01 16:22:11.250 ,6,1,1.,24.0,0.,24.0,0.,24.0,0.,24.0
1979-07-01 16:22:35.250 ,0,0,12.,24.0,0.,24.0,0.,24.0,0.,24.0
1979-07-01 16:22:59.250 ,1,1,0.,24.0,0.,24.0,0.,24.0,0.,24.0
1979-07-01 16:23:23.250 ,2,1,0.,24.0,0.,24.0,0.,24.0,0.,24.0
1979-07-01 16:23:47.250 ,6,1,0.,24.0,0.,24.0,1.,24.0,0.,24.0
1979-07-01 16:24:11.250 ,5,1,23.,24.0,0.,24.0,0.,24.0,0.,24.0
1979-07-01 16:24:35.250 ,1,1,0.,24.0,0.,24.0,0.,24.0,0.,24.0
1979-07-01 16:24:59.250 ,2,1,0.,24.0,0.,24.0,0.,24.0,0.,24.0
1979-07-01 16:25:23.250 ,6,1,0.,24.0,0.,24.0,2.,24.0,0.,24.0
1979-07-01 16:25:47.250 ,5,1,12.,24.0,0.,24.0,1.,24.0,0.,24.0
1979-07-01 16:26:11.250 ,1,1,0.,24.0,0.,24.0,0.,24.0,0.,24.0
1979-07-01 16:26:35.250 ,2,1,1.,24.0,0.,24.0,0.,24.0,0.,24.0
1979-07-01 16:26:59.250 ,6,1,0.,24.0,0.,24.0,0.,24.0,0.,24.0
1979-07-01 16:27:23.250 ,5,1,14.,24.0,0.,24.0,0.,24.0,0.,24.0
1979-07-01 16:27:47.250 ,1,1,1.,24.0,0.,24.0,1.,24.0,0.,24.0
1979-07-01 16:28:11.250 ,2,1,0.,24.0,0.,24.0,0.,24.0,0.,24.0
1979-07-01 16:28:35.250 ,6,1,0.,24.0,0.,24.0,0.,24.0,0.,24.0
1979-07-01 16:28:59.250 ,5,1,14.,24.0,0.,24.0,0.,24.0,0.,24.0
1979-07-01 16:29:23.250 ,1,1,0.,24.0,0.,24.0,0.,24.0,0.,24.0
1979-07-01 16:29:47.250 ,0,0,0.,24.0,0.,24.0,0.,24.0,0.,24.0
1979-07-01 16:30:11.250 ,0,0,0.,24.0,1.,24.0,1.,24.0,0.,24.0
1979-07-01 16:30:35.250 ,5,1,11.,24.0,0.,24.0,1.,24.0,0.,24.0
1979-07-01 16:30:59.250 ,5,0,0.,24.0,0.,24.0,0.,24.0,0.,24.0
1979-07-01 16:31:23.250 ,4,1,1.,24.0,0.,24.0,1.,24.0,0.,24.0
1979-07-01 16:31:47.250 ,4,0,0.,24.0,0.,24.0,0.,24.0,0.,24.0
1979-07-01 16:32:11.250 ,3,1,1.,24.0,0.,24.0,0.,24.0,0.,24.0
1979-07-01 16:32:35.250 ,3,0,0.,24.0,0.,24.0,0.,24.0,0.,24.0
1979-07-01 16:32:59.250 ,2,1,0.,24.0,0.,24.0,0.,24.0,0.,24.0
1979-07-01 16:33:23.250 ,2,0,0.,24.0,0.,24.0,0.,24.0,0.,24.0
1979-07-01 16:33:47.250 ,1,1,0.,24.0,0.,24.0,0.,24.0,0.,24.0
1979-07-01 16:34:11.250 ,1,0,0.,24.0,0.,24.0,0.,24.0,0.,24.0
1979-07-01 16:34:35.250 ,0,1,0.,24.0,0.,24.0,0.,24.0,0.,24.0
1979-07-01 16:34:59.250 ,0,0,0.,24.0,0.,24.0,1.,24.0,0.,24.0
1979-07-01 16:35:23.250 ,0,1,0.,24.0,0.,24.0,0.,24.0,0.,24.0
1979-07-01 16:35:47.250 ,0,0,0.,24.0,1.,24.0,0.,24.0,0.,24.0
1979-07-01 16:36:11.250 ,1,1,0.,24.0,0.,24.0,0.,24.0,0.,24.0
1979-07-01 16:36:35.250 ,1,0,0.,24.0,0.,24.0,1.,24.0,0.,24.0
1979-07-01 16:36:59.250 ,2,1,0.,24.0,0.,24.0,0.,24.0,0.,24.0
1979-07-01 16:37:23.250 ,2,0,0.,24.0,1.,24.0,0.,24.0,0.,24.0
1979-07-01 16:37:47.250 ,3,1,0.,24.0,0.,24.0,0.,24.0,0.,24.0
1979-07-01 16:38:11.250 ,3,0,0.,24.0,0.,24.0,0.,24.0,0.,24.0
1979-07-01 16:38:35.250 ,0,0,0.,24.0,0.,24.0,2.,24.0,0.,24.0
1979-07-01 16:38:59.250 ,0,0,0.,24.0,0.,24.0,0.,24.0,0.,24.0
1979-07-01 16:39:23.250 ,5,1,,0,,0,,0,,0
1979-07-01 16:39:47.250 ,5,0,0.,24.0,0.,24.0,0.,24.0,0.,24.0
1979-07-01 16:40:11.250 ,6,1,0.,24.0,0.,24.0,0.,24.0,0.,24.0
1979-07-01 16:40:35.250 ,6,0,0.,24.0,0.,24.0,0.,24.0,0.,24.0
1979-07-01 16:40:59.250 ,7,1,5.,24.0,0.,24.0,0.,24.0,0.,24.0
1979-07-01 16:41:23.250 ,0,0,26.,24.0,0.,24.0,0.,24.0,0.,24.0
1979-07-01 16:41:50.850 ,0,0,31.,24.0,0.,24.0,0.,24.0,0.,24.0
1979-07-01 16:42:11.250 ,0,0,23.,24.0,0.,24.0,0.,24.0,0.,24.0
1979-07-01 16:42:36.450 ,6,1,28.,24.0,0.,24.0,0.,24.0,0.,24.0
1979-07-01 16:42:59.250 ,6,0,0.,24.0,0.,24.0,0.,24.0,0.,24.0
1979-07-01 16:44:11.250 ,0,0,0.,24.0,0.,24.0,1.,24.0,0.,24.0
1979-07-01 16:44:35.250 ,0,0,0.,24.0,0.,24.0,0.,24.0,0.,24.0
1979-07-01 16:44:59.250 ,3,1,0.,24.0,0.,24.0,0.,24.0,0.,24.0
1979-07-01 16:45:23.250 ,3,0,0.,24.0,0.,24.0,1.,24.0,0.,24.0
1979-07-01 16:45:47.250 ,2,1,0.,24.0,0.,24.0,0.,24.0,0.,24.0
1979-07-01 16:46:11.250 ,2,0,0.,24.0,0.,24.0,1.,24.0,0.,24.0
1979-07-01 16:46:35.250 ,0,0,1.,24.0,0.,24.0,0.,24.0,0.,24.0
1979-07-01 16:46:59.250 ,0,0,0.,24.0,0.,24.0,0.,24.0,0.,24.0
1979-07-01 16:47:23.250 ,0,1,0.,24.0,1.,24.0,1.,24.0,0.,24.0
1979-07-01 16:47:47.250 ,0,0,1.,24.0,0.,24.0,0.,24.0,0.,24.0
1979-07-01 16:48:11.250 ,0,1,0.,24.0,0.,24.0,0.,24.0,0.,24.0
1979-07-01 16:48:35.250 ,0,0,0.,24.0,0.,24.0,1.,24.0,0.,24.0
1979-07-01 16:48:59.250 ,1,1,0.,24.0,0.,24.0,0.,24.0,0.,24.0
1979-07-01 16:49:23.250 ,1,0,,0,,0,,0,,0
1979-07-01 16:49:47.250 ,2,1,0.,24.0,0.,24.0,0.,24.0,0.,24.0
1979-07-01 16:50:11.250 ,2,0,0.,24.0,0.,24.0,0.,24.0,0.,24.0
1979-07-01 16:50:35.250 ,3,1,0.,24.0,0.,24.0,0.,24.0,0.,24.0
1979-07-01 16:50:59.250 ,3,0,0.,24.0,1.,24.0,0.,24.0,0.,24.0
1979-07-01 16:51:23.250 ,4,1,0.,24.0,0.,24.0,0.,24.0,0.,24.0
1979-07-01 16:51:47.250 ,4,0,0.,24.0,0.,24.0,0.,24.0,0.,24.0
1979-07-01 16:52:11.250 ,5,1,2.,24.0,0.,24.0,0.,24.0,0.,24.0
1979-07-01 16:52:35.250 ,5,0,0.,24.0,0.,24.0,0.,24.0,0.,24.0
1979-07-01 16:52:59.250 ,6,1,1.,24.0,0.,24.0,0.,24.0,0.,24.0
1979-07-01 16:53:23.250 ,6,0,0.,24.0,0.,24.0,0.,24.0,0.,24.0
1979-07-01 16:53:47.250 ,7,1,2.,24.0,0.,24.0,0.,24.0,0.,24.0
1979-07-01 16:54:11.250 ,7,0,33.,24.0,0.,24.0,0.,24.0,0.,24.0
1979-07-01 16:54:35.250 ,7,1,35.,24.0,0.,24.0,0.,24.0,0.,24.0
1979-07-01 16:54:59.250 ,7,0,33.,24.0,0.,24.0,0.,24.0,0.,24.0
1979-07-01 16:55:23.250 ,6,1,29.,24.0,0.,24.0,0.,24.0,0.,24.0
1979-07-01 16:55:47.250 ,6,0,0.,24.0,0.,24.0,0.,24.0,0.,24.0
1979-07-01 16:56:11.250 ,5,1,0.,24.0,0.,24.0,0.,24.0,0.,24.0
1979-07-01 16:56:35.250 ,5,0,0.,24.0,0.,24.0,0.,24.0,0.,24.0
1979-07-01 16:56:59.250 ,4,1,0.,24.0,0.,24.0,0.,24.0,0.,24.0
1979-07-01 16:57:23.250 ,4,0,1.,24.0,0.,24.0,2.,24.0,0.,24.0
1979-07-01 16:57:47.250 ,3,1,0.,24.0,0.,24.0,0.,24.0,0.,24.0
1979-07-01 16:58:11.250 ,3,0,1.,24.0,0.,24.0,0.,24.0,0.,24.0
1979-07-01 16:58:35.250 ,2,1,0.,24.0,0.,24.0,0.,24.0,0.,24.0
1979-07-01 16:58:59.250 ,2,0,0.,24.0,0.,24.0,0.,24.0,0.,24.0
1979-07-01 16:59:23.250 ,1,1,0.,24.0,0.,24.0,1.,24.0,0.,24.0
1979-07-01 16:59:47.250 ,1,0,1.,24.0,0.,24.0,0.,24.0,0.,24.0
1979-07-01 17:00:11.250 ,0,1,0.,24.0,0.,24.0,2.,24.0,0.,24.0
1979-07-01 17:00:35.250 ,0,0,2.,24.0,0.,24.0,0.,24.0,0.,24.0
1979-07-01 17:00:59.250 ,0,1,0.,24.0,0.,24.0,1.,24.0,0.,24.0
1979-07-01 17:01:23.250 ,0,0,0.,24.0,0.,24.0,1.,24.0,0.,24.0
1979-07-01 17:01:47.250 ,1,1,0.,24.0,0.,24.0,0.,24.0,0.,24.0
1979-07-01 17:02:11.250 ,1,0,0.,24.0,0.,24.0,0.,24.0,0.,24.0
1979-07-01 17:02:35.250 ,2,1,0.,24.0,0.,24.0,2.,24.0,0.,24.0
1979-07-01 17:02:59.250 ,2,0,0.,24.0,0.,24.0,0.,24.0,0.,24.0
1979-07-01 17:03:23.250 ,3,1,0.,24.0,0.,24.0,0.,24.0,0.,24.0
1979-07-01 17:03:47.250 ,3,0,0.,24.0,0.,24.0,0.,24.0,0.,24.0
1979-07-01 17:04:11.250 ,4,1,0.,24.0,0.,24.0,2.,24.0,0.,24.0
1979-07-01 17:04:35.250 ,4,0,0.,24.0,0.,24.0,1.,24.0,0.,24.0
1979-07-01 17:04:59.250 ,5,1,0.,24.0,0.,24.0,0.,24.0,0.,24.0
1979-07-01 17:05:23.250 ,5,0,0.,24.0,0.,24.0,0.,24.0,0.,24.0
1979-07-01 17:05:47.250 ,6,1,1.,24.0,0.,24.0,0.,24.0,0.,24.0
1979-07-01 17:06:11.250 ,6,0,0.,24.0,0.,24.0,1.,24.0,0.,24.0
1979-07-01 17:06:35.250 ,7,0,7.,24.0,0.,24.0,1.,24.0,0.,24.0
1979-07-01 17:06:59.250 ,7,0,31.,24.0,0.,24.0,0.,24.0,0.,24.0
1979-07-01 17:07:23.250 ,5,1,21.,24.0,0.,24.0,1.,24.0,0.,24.0
1979-07-01 17:07:47.250 ,1,1,0.,24.0,0.,24.0,0.,24.0,0.,24.0
1979-07-01 17:08:11.250 ,2,1,0.,24.0,0.,24.0,0.,24.0,0.,24.0
1979-07-01 17:08:35.250 ,6,1,0.,24.0,0.,24.0,0.,24.0,0.,24.0
1979-07-01 17:08:59.250 ,5,1,13.,24.0,0.,24.0,0.,24.0,0.,24.0
1979-07-01 17:09:23.250 ,1,1,0.,24.0,0.,24.0,0.,24.0,0.,24.0
1979-07-01 17:09:47.250 ,2,1,0.,24.0,0.,24.0,0.,24.0,0.,24.0
1979-07-01 17:10:11.250 ,6,1,0.,24.0,0.,24.0,0.,24.0,0.,24.0
1979-07-01 17:10:35.250 ,5,1,20.,24.0,0.,24.0,1.,24.0,0.,24.0
1979-07-01 17:10:59.250 ,1,1,0.,24.0,0.,24.0,1.,24.0,0.,24.0
1979-07-01 17:11:23.250 ,2,1,0.,24.0,1.,24.0,0.,24.0,0.,24.0
1979-07-01 17:11:47.250 ,6,1,0.,24.0,1.,24.0,0.,24.0,0.,24.0
1979-07-01 17:12:11.250 ,5,1,12.,24.0,0.,24.0,0.,24.0,0.,24.0
1979-07-01 17:12:35.250 ,1,1,0.,24.0,0.,24.0,0.,24.0,0.,24.0
1979-07-01 17:12:59.250 ,2,1,1.,24.0,0.,24.0,0.,24.0,0.,24.0
1979-07-01 17:13:23.250 ,6,1,0.,24.0,1.,24.0,0.,24.0,0.,24.0
1979-07-01 17:13:47.250 ,5,1,14.,24.0,0.,24.0,0.,24.0,0.,24.0
1979-07-01 17:14:11.250 ,1,1,0.,24.0,0.,24.0,0.,24.0,0.,24.0
1979-07-01 17:14:35.250 ,2,1,1.,24.0,0.,24.0,0.,24.0,0.,24.0
1979-07-01 17:14:59.250 ,6,1,0.,24.0,0.,24.0,0.,24.0,0.,24.0
1979-07-01 17:15:23.250 ,5,1,15.,24.0,1.,24.0,0.,24.0,0.,24.0
1979-07-01 17:15:47.250 ,1,1,0.,24.0,0.,24.0,0.,24.0,0.,24.0
1979-07-01 17:16:11.250 ,2,1,0.,24.0,0.,24.0,0.,24.0,0.,24.0
1979-07-01 17:16:35.250 ,6,1,0.,24.0,0.,24.0,0.,24.0,0.,24.0
1979-07-01 17:16:59.250 ,5,1,15.,24.0,0.,24.0,2.,24.0,0.,24.0
1979-07-01 17:17:23.250 ,1,1,0.,24.0,0.,24.0,0.,24.0,0.,24.0
1979-07-01 17:17:47.250 ,0,0,0.,24.0,0.,24.0,1.,24.0,0.,24.0
1979-07-01 17:18:11.250 ,0,0,0.,24.0,0.,24.0,0.,24.0,0.,24.0
1979-07-01 17:18:35.250 ,5,1,22.,24.0,0.,24.0,0.,24.0,0.,24.0
1979-07-01 17:18:59.250 ,5,0,0.,24.0,0.,24.0,0.,24.0,0.,24.0
1979-07-01 17:19:23.250 ,4,1,0.,24.0,0.,24.0,0.,24.0,0.,24.0
1979-07-01 17:19:47.250 ,4,0,0.,24.0,0.,24.0,0.,24.0,0.,24.0
1979-07-01 17:20:11.250 ,3,1,0.,24.0,0.,24.0,0.,24.0,0.,24.0
1979-07-01 17:20:35.250 ,3,0,0.,24.0,0.,24.0,0.,24.0,0.,24.0
1979-07-01 17:20:59.250 ,2,1,0.,24.0,1.,24.0,0.,24.0,0.,24.0
1979-07-01 17:21:23.250 ,2,0,0.,24.0,0.,24.0,1.,24.0,0.,24.0
1979-07-01 17:21:47.250 ,1,1,0.,24.0,0.,24.0,0.,24.0,0.,24.0
1979-07-01 17:22:11.250 ,1,0,0.,24.0,0.,24.0,0.,24.0,0.,24.0
1979-07-01 17:22:35.250 ,0,1,0.,24.0,0.,24.0,0.,24.0,0.,24.0
1979-07-01 17:22:59.250 ,0,0,0.,24.0,0.,24.0,1.,24.0,0.,24.0
1979-07-01 17:23:23.250 ,0,1,0.,24.0,0.,24.0,1.,24.0,0.,24.0
1979-07-01 17:23:47.250 ,0,0,0.,24.0,0.,24.0,0.,24.0,0.,24.0
1979-07-01 17:24:11.250 ,1,1,0.,24.0,0.,24.0,0.,24.0,0.,24.0
1979-07-01 17:24:35.250 ,1,0,0.,24.0,0.,24.0,0.,24.0,0.,24.0
1979-07-01 17:24:59.250 ,2,1,0.,24.0,0.,24.0,0.,24.0,0.,24.0
1979-07-01 17:25:23.250 ,2,0,1.,24.0,1.,24.0,1.,24.0,0.,24.0
1979-07-01 17:25:47.250 ,3,1,0.,24.0,1.,24.0,0.,24.0,0.,24.0
1979-07-01 17:26:11.250 ,3,0,0.,24.0,0.,24.0,0.,24.0,0.,24.0
1979-07-01 17:26:35.250 ,4,1,0.,24.0,0.,24.0,0.,24.0,0.,24.0
1979-07-01 17:26:59.250 ,4,0,0.,24.0,0.,24.0,0.,24.0,0.,24.0
1979-07-01 17:27:23.250 ,5,1,0.,24.0,0.,24.0,0.,24.0,0.,24.0
1979-07-01 17:27:47.250 ,5,0,1.,24.0,0.,24.0,0.,24.0,0.,24.0
1979-07-01 17:28:11.250 ,6,1,0.,24.0,0.,24.0,0.,24.0,0.,24.0
1979-07-01 17:28:35.250 ,0,0,0.,24.0,0.,24.0,0.,24.0,0.,24.0
1979-07-01 17:28:59.250 ,7,1,11.,24.0,0.,24.0,0.,24.0,0.,24.0
1979-07-01 17:29:23.250 ,7,0,32.,24.0,0.,24.0,0.,24.0,0.,24.0
1979-07-01 17:29:47.250 ,7,1,34.,24.0,0.,24.0,0.,24.0,0.,24.0
1979-07-01 17:30:11.250 ,7,0,21.,24.0,0.,24.0,0.,24.0,0.,24.0
1979-07-01 17:30:35.250 ,6,1,18.,24.0,0.,24.0,0.,24.0,0.,24.0
1979-07-01 17:30:59.250 ,6,0,0.,24.0,0.,24.0,0.,24.0,0.,24.0
1979-07-01 17:31:23.250 ,5,1,0.,24.0,0.,24.0,0.,24.0,0.,24.0
1979-07-01 17:31:47.250 ,5,0,1.,24.0,0.,24.0,1.,24.0,0.,24.0
1979-07-01 17:32:11.250 ,4,1,0.,24.0,0.,24.0,0.,24.0,0.,24.0
1979-07-01 17:32:35.250 ,4,0,0.,24.0,0.,24.0,0.,24.0,0.,24.0
1979-07-01 17:32:59.250 ,3,1,0.,24.0,0.,24.0,1.,24.0,0.,24.0
1979-07-01 17:33:23.250 ,3,0,0.,24.0,0.,24.0,0.,24.0,0.,24.0
1979-07-01 17:33:47.250 ,2,1,1.,24.0,0.,24.0,1.,24.0,0.,24.0
1979-07-01 17:34:11.250 ,2,0,0.,24.0,0.,24.0,0.,24.0,0.,24.0
1979-07-01 17:34:35.250 ,1,1,0.,24.0,0.,24.0,0.,24.0,0.,24.0
1979-07-01 17:34:59.250 ,0,0,0.,24.0,0.,24.0,0.,24.0,0.,24.0
1979-07-01 17:35:29.250 ,0,0,0.,24.0,0.,24.0,0.,24.0,0.,24.0